Home   Weather   Bergisch Gladbach   Past weeks

Flag for Germany Past Weather in Bergisch Gladbach, North Rhine-Westphalia, Germany — Yesterday and Last 2 Weeks

50 °F


Feels Like: 48 °F
Forecast: 42 / 53 °F
Wind: 6 mph from North

Location: Koeln / Bonn

Current Time: Oct 25, 2016 at 2:02:00 PM

Latest Report: Oct 25, 2016 at 1:20 PM

Visibility: 2 mi

Pressure: 30.21 "Hg

Humidity: 94%

Dew Point: 48 °F

Location of Bergisch GladbachLocation

Past Weather in Bergisch Gladbach — Graph


Bergisch Gladbach Temperature Yesterday

Maximum temperature yesterday: 54 °F (at 3:20 PM)
Minimum temperature yesterday: 43 °F (at 12:20 AM)
Average temperature yesterday: 49 °F

High & Low Weather Summary for the Past Weeks

High68 °F (Oct 16, 3:50 PM)100% (Oct 11, 1:20 AM)30.24 "Hg (Oct 11, 1:20 AM)
Low30 °F (Oct 11, 7:50 AM)49% (Oct 16, 3:20 PM)29.68 "Hg (Oct 14, 6:20 PM)
Average49 °F86%30.00 "Hg
* Reported Oct 10 12:20 PM — Oct 25 12:50 PM, Bergisch Gladbach, Weather by CustomWeather, © 2016

Note: Actual official high and low records may vary slightly from our data, if they occured in-between our weather recording intervals... More about our weather records


Bergisch Gladbach Weather History for the Previous 24 Hours

Scroll right to see more
Time TempWeatherWind HumidityBarometerVisibility
12:50 PM
Tue, Oct 25
50 °FDrizzle. Fog.7 mph94%30.21 "Hg2 mi
12:20 PM50 °FDrizzle. Fog.7 mph94%30.21 "Hg2 mi
11:50 AM50 °FMostly cloudy.8 mph94%30.18 "Hg4 mi
11:20 AM50 °FMostly cloudy.6 mph94%30.18 "Hg4 mi
10:50 AM50 °FMostly cloudy.7 mph94%30.18 "Hg4 mi
10:20 AM50 °FMostly cloudy.6 mph94%30.15 "Hg4 mi
9:50 AM50 °FMostly cloudy.10 mph100%30.15 "Hg4 mi
9:20 AM50 °FMostly cloudy.7 mph100%30.15 "Hg4 mi
8:50 AM50 °FDrizzle. Mostly cloudy.8 mph100%30.12 "Hg2 mi
8:20 AM52 °FDrizzle. Partly sunny.9 mph94%30.12 "Hg3 mi
7:50 AM52 °FPartly cloudy.7 mph94%30.12 "Hg4 mi
7:20 AM52 °FPartly cloudy.6 mph94%30.09 "Hg4 mi
6:50 AM52 °FPartly cloudy.6 mph94%30.09 "Hg4 mi
6:20 AM52 °FPassing clouds.7 mph94%30.07 "Hg4 mi
5:50 AM52 °FPassing clouds.8 mph94%30.07 "Hg4 mi
5:20 AM52 °FPartly cloudy.5 mph100%30.04 "Hg4 mi
4:50 AM52 °FMostly cloudy.5 mph100%30.04 "Hg4 mi
4:20 AM52 °FLow clouds.5 mph100%30.04 "Hg4 mi
3:50 AM52 °FLow clouds.2 mph100%30.04 "Hg5 mi
3:20 AM52 °FLow clouds.2 mph100%30.04 "Hg5 mi
2:50 AM52 °FPassing clouds.1 mph100%30.01 "HgN/A
2:20 AM52 °FLight rain. Partly cloudy.2 mph100%30.01 "HgN/A
1:50 AM52 °FLight rain. Passing clouds.3 mph100%29.98 "Hg4 mi
1:20 AM52 °FLight rain. Partly cloudy.2 mph100%29.98 "Hg5 mi
12:50 AM52 °FLight rain. Partly cloudy.1 mph100%30.01 "Hg5 mi
12:20 AM52 °FLight rain. Partly cloudy.3 mph100%29.98 "Hg5 mi
11:50 PM
Mon, Oct 24
52 °FLight rain. Passing clouds.5 mph100%29.98 "Hg5 mi
11:20 PM52 °FLight rain. Partly cloudy.5 mph100%29.98 "Hg4 mi
10:50 PM52 °FLight rain. Passing clouds.2 mph100%29.98 "Hg4 mi
10:20 PM52 °FRain. Passing clouds.2 mph100%29.95 "Hg4 mi
9:50 PM52 °FLight rain. Partly cloudy.No wind100%29.95 "HgN/A
9:20 PM52 °FLight rain. Passing clouds.2 mph100%29.95 "HgN/A
8:50 PM52 °FLight rain. Partly cloudy.5 mph100%29.95 "HgN/A
8:20 PM52 °FRain. Mostly cloudy.3 mph100%29.92 "Hg6 mi
7:50 PM52 °FRain. Passing clouds.2 mph100%29.95 "Hg4 mi
7:20 PM52 °FLight rain. Passing clouds.No wind100%29.95 "Hg5 mi
6:50 PM52 °FLight rain. Passing clouds.No wind100%29.92 "HgN/A
6:20 PM54 °FLight rain. Passing clouds.1 mph94%29.92 "HgN/A
5:50 PM54 °FLight rain. Partly sunny.2 mph94%29.92 "HgN/A
5:20 PM54 °FPartly sunny.3 mph94%29.92 "HgN/A
4:50 PM54 °FLight rain. Partly sunny.3 mph94%29.89 "HgN/A
4:20 PM54 °FLight rain. Mostly cloudy.3 mph94%29.89 "HgN/A
3:50 PM52 °FLight rain. Broken clouds.5 mph100%29.89 "HgN/A
3:20 PM54 °FLight rain. Broken clouds.7 mph94%29.89 "HgN/A
2:50 PM52 °FLight rain. More clouds than sun.8 mph94%29.86 "HgN/A
2:20 PM52 °FLight rain. Partly sunny.7 mph94%29.89 "HgN/A
Weather by CustomWeather, © 2016

See weather overviewHow to use our weather pages